This demonstration page uses our WeatherBlox Daily Observations layout. Learn more.

Left ArrowRight Arrow

47.50024, -111.30081

Hourly Observations for October 1, 2019

Temp ( °F °C ) Dew Point ( °F °C ) Humidity (%) Winds ( mph kmh ) Pressure ( in mb ) Visibility ( mi km ) Precip ( " mm )
12:53 am 00:53 Clear 19 -7.2 15 -9.4 84 84 SSW 5 7 30.30 1026 10 16 0.00 0.00
1:51 am 01:51 Clear with Mist and Fog 12 -11 10 -12 92 92 WSW 3 6 30.41 1030 2 3 0.00 0.00
1:53 am 01:53 Mostly Clear 14 -10 10 -12.2 84 84 WSW 3 6 30.30 1026 10 16 0.00 0.00
2:53 am 02:53 Clear 13 -10.6 10 -12.2 88 88 Calm 30.29 1026 10 16 0.00 0.00
3:12 am 03:12 Clear with Mist and Fog 13 -10.6 12 -11.1 96 96 W 3 6 30.40 1029 2 3 0.00 0.00
3:19 am 03:19 Clear 13 -10.6 10 -12.2 88 88 WNW 5 7 30.40 1029 10 16 0.00 0.00
3:22 am 03:22 Mostly Cloudy with Freezing Fog 13 -10.6 9 -12.8 84 84 WNW 5 7 30.40 1029 1 1 0.00 0.00
3:24 am 03:24 Mostly Cloudy with Freezing Fog 12 -11.1 9 -12.8 87 87 NW 5 7 30.41 1030 0 0 0.00 0.00
3:50 am 03:50 Mostly Cloudy with Freezing Fog 10 -12 9 -13 92 92 WNW 5 7 30.42 1030 1 1 0.00 0.00
3:53 am 03:53 Mostly Cloudy with Freezing Fog 11 -11.7 8 -13.3 88 88 NW 5 7 30.30 1026 1 1 0.00 0.00
4:05 am 04:05 Mostly Cloudy with Haze 12 -11.1 7 -13.9 80 80 WNW 3 6 30.41 1030 0 0 0.00 0.00
4:22 am 04:22 Mostly Cloudy with Freezing Fog 10 -12.2 7 -13.9 87 87 WNW 5 7 30.41 1030 0 0 0.00 0.00
4:29 am 04:29 Clear with Freezing Fog 10 -12.2 7 -13.9 87 87 WNW 6 9 30.41 1030 1 1 0.00 0.00
4:53 am 04:53 Clear 14 -10 10 -12.2 84 84 Calm 30.29 1026 10 16 0.00 0.00
5:53 am 05:53 Clear with Mist and Fog 10 -12.2 7 -13.9 87 87 SSW 5 7 30.32 1027 6 10 0.00 0.00
6:10 am 06:10 Mostly Clear with Mist and Fog 10 -12.2 7 -13.9 87 87 S 5 7 30.43 1030 3 4 0.00 0.00
6:22 am 06:22 Clear with Mist and Fog 11 -11.7 8 -13.3 88 88 Calm 30.42 1030 6 10 0.00 0.00
6:53 am 06:53 Clear 10 -12.2 6 -14.4 84 84 Calm 30.32 1027 10 16 0.00 0.00
7:05 am 07:05 Mostly Clear with Mist and Fog 11 -11.7 8 -13.3 88 88 SSW 5 7 30.42 1030 3 4 0.00 0.00
7:07 am 07:07 Mostly Clear with Mist and Fog 11 -11.7 8 -13.3 88 88 SSW 5 7 30.42 1030 1 2 0.00 0.00
7:09 am 07:09 Mostly Cloudy with Mist and Fog 11 -11.7 8 -13.3 88 88 SSW 6 9 30.42 1030 1 1 0.00 0.00
7:23 am 07:23 Mostly Clear with Mist and Fog 11 -11.7 7 -13.9 84 84 Calm 30.42 1030 2 2 0.00 0.00
7:26 am 07:26 Partly Cloudy with Mist and Fog 11 -11.7 7 -13.9 84 84 Calm 30.43 1030 4 6 0.00 0.00
7:40 am 07:40 Mostly Cloudy with Mist and Fog 12 -11.1 8 -13.3 84 84 SW 3 6 30.42 1030 1 2 0.00 0.00
7:43 am 07:43 Mostly Cloudy with Freezing Fog 10 -12.2 7 -13.9 87 87 SW 3 6 30.44 1031 0 0 0.00 0.00
7:53 am 07:53 Mostly Cloudy with Freezing Fog 12 -11.1 9 -12.8 87 87 SSW 3 6 30.32 1027 0 0 0.00 0.00
8:11 am 08:11 Mostly Cloudy with Freezing Fog 10 -12.2 8 -13.3 92 92 SW 3 6 30.44 1031 1 1 0.00 0.00
8:21 am 08:21 Partly Cloudy with Mist and Fog 12 -11.1 9 -12.8 87 87 SW 3 6 30.42 1030 1 2 0.00 0.00
8:27 am 08:27 Sunny with Mist and Fog 12 -11.1 10 -12.2 92 92 WSW 3 6 30.42 1030 2 3 0.00 0.00
8:39 am 08:39 Sunny 13 -10.6 11 -11.7 92 92 SW 5 7 30.42 1030 10 16 0.00 0.00
8:53 am 08:53 Sunny 13 -10.6 12 -11.1 96 96 SW 3 6 30.33 1027 10 16 0.00 0.00
9:53 am 09:53 Sunny 14 -10 12 -11.1 92 92 W 3 6 30.35 1028 10 16 0.00 0.00
10:53 am 10:53 Sunny 19 -7.2 17 -8.3 92 92 SW 5 7 30.33 1027 10 16 0.00 0.00
11:53 am 11:53 Sunny 21 -6.1 17 -8.3 85 85 WSW 5 7 30.34 1027 10 16 0.00 0.00
12:53 pm 12:53 Sunny 24 -4.4 20 -6.7 84 84 Calm 30.31 1027 10 16 0.00 0.00
1:53 pm 13:53 Sunny 24 -4.4 20 -6.7 84 84 WSW 3 6 30.32 1027 10 16 0.00 0.00
2:53 pm 14:53 Sunny 27 -2.8 21 -6.1 78 78 Calm 30.31 1026 10 16 0.00 0.00
3:53 pm 15:53 Sunny 29 -1.7 22 -5.6 75 75 Calm 30.30 1026 10 16 0.00 0.00
4:53 pm 16:53 Sunny 32 0 22 -5.6 66 66 Calm 30.28 1026 10 16 0.00 0.00
5:53 pm 17:53 Sunny 29 -1.7 22 -5.6 75 75 E 3 6 30.30 1026 10 16 0.00 0.00
6:53 pm 18:53 Sunny 27 -2.8 21 -6.1 78 78 ESE 7 11 30.31 1027 10 16 0.00 0.00
7:53 pm 19:53 Clear 24 -4.4 18 -7.8 77 77 Calm 30.32 1027 10 16 0.00 0.00
8:53 pm 20:53 Clear 25 -3.9 19 -7.2 78 78 ESE 5 7 30.32 1027 10 16 0.00 0.00
9:53 pm 21:53 Clear 24 -4.4 20 -6.7 84 84 E 3 6 30.31 1027 10 16 0.00 0.00
10:53 pm 22:53 Clear 18 -7.8 15 -9.4 88 88 Calm 30.31 1026 7 11 0.00 0.00
11:25 pm 23:25 Clear with Mist and Fog 19 -7.2 16 -8.9 88 88 W 3 6 30.33 1027 1 2 0.00 0.00
11:32 pm 23:32 Clear with Freezing Fog 18 -7.8 15 -9.4 88 88 W 3 6 30.33 1027 1 1 0.00 0.00
11:39 pm 23:39 Mostly Cloudy with Freezing Fog 16 -8.9 14 -10 92 92 W 5 7 30.36 1028 0 0 0.00 0.00
11:53 pm 23:53 Mostly Cloudy with Freezing Fog 17 -8.3 15 -9.4 92 92 NW 5 7 30.30 1026 1 1 0.00 0.00
11:59 pm 23:59 Clear with Freezing Fog 18 -7.8 15 -9.4 88 88 NW 5 7 30.34 1028 0 0 0.00 0.00

Powered by AerisWeather